Location: Mount Cross
(36.6390°N, 79.4878°W)
Time: 07:45:47
(UTC+00:00)

Vanguard 1 Rocket - Pass Details

Date: 31 March 2023
Orbit: 654 x 4221 km, 34.3° (Epoch: 01 June)

Event Time Altitude Azimuth Distance (km) Brightness Sun altitude
Rises 01:15:52 0° 226° (SW) 7,986 12.5 -19.8°
Reaches altitude 10° 01:21:12 10° 222° (SW) 7,197 12.2 -20.8°
Maximum altitude 01:46:22 58° 151° (SSE) 4,388 10.4 -25.4°
Enters shadow 01:59:26 29° 89° (E) 4,888 10.6 -27.7°
Drops below altitude 10° 02:05:35 10° 79° (E) 5,743 - -28.8°
Sets 02:09:12 0° 76° (ENE) 6,377 - -29.4°
